SCP
0 0 0 0 0 0 0 0 0 0 0 0 0 0 0 0 0 0 0 0 0 0 0 0 0 0 0 0 0 0 0 0 0 0 0 0 0 0 0 0 0 0 0 0 0 0 0 0 0
0 0 0 0 0 0 0 0 0 0 0 0 0 0 0 0 0 0 0 0 0 0 0 0 0 0 0 0 0 0 0 0 0 0 0 0 0 0 0 0 0 0 0 0 0 0 0 0 0
0 0 0 0 0 0 0 0 0 0 0 0 0 0 0 0 0 0 0 0 0 0 0 0 0 0 0 0 0 0 0 0 0 0 0 0 0 0 0 0 0 0 0 0 0 0 0 0 0
0 0 0 0 0 0 0 0 0 0 0 0 0 0 0 0 0 0 0 0 0 0 0 0 0 0 0 0 0 0 0 0 0 0 0 0 0 0 0 0 0 0 0 0 0 0 0 0 0
0 0 0 0 0 0 0 0 0 0 0 0 0 0 0 0 0 0 0 0 0 0 0 0 0 0 0 0 0 0 0 0 0 0 0 0 0 0 0 0 0 0 0 0 0 0 0 0 0
0 0 0 0 0 0 0 0 0 0 0 0 0 0 0 0 0 0 0 0 0 0 0 0 0 0 0 0 0 0 0 0 0 0 0 0 0 0 0 0 0 0 0 0 0 0 0 0 0
0 0 0 0 0 0 0 0 0 0 0 0 0 0 0 0 0 0 0 0 0 0 0 0 0 0 0 0 0 0 0 0 0 0 0 0 0 0 0 0 0 0 0 0 0 0 0 0 0
0 0 0 0 0 0 0 0 0 0 0 0 0 0 0 0 0 0 0 0 0 0 0 0 0 0 0 0 0 0 0 0 0 0 0 0 0 0 0 0 0 0 0 0 0 0 0 0 0
0 0 0 0 0 0 0 0 0 0 0 0 0 0 0 0 0 0 0 0 0 0 0 0 0 0 0 0 0 0 0 0 0 0 0 0 0 0 0 0 0 0 0 0 0 0 0 0 0
0 0 0 -0 -0 0 0 0 0 0 0 0 0 0 0 0 0 0 0 0 0 0 0 0 0 0 0 0 0 0 0 0 0 0 0 0 0 0 0 0 0 0 0 0 0 0 0 0 0
0 0 0 0 0 0 0 0 0 0 0 0 0 0 1 1 0 0 0 0 0 0 0 0 0 0 0 0 0 0 0 0 0 0 0 0 0 0 0 0 0 0 0 0 0 0 0 0 0
0 0 0 0 0 0 0 0 0 0 0 0 0 0 1 0 0 0 0 0 0 0 0 0 0 0 0 0 0 0 0 0 0 0 0 0 0 0 0 0 0 0 0 0 0 0 0 0 0
0 0 0 0 0 0 0 0 0 0 0 0 0 0 0 0 0 0 0 0 0 0 0 0 0 0 0 0 0 0 0 0 0 0 0 0 0 0 0 0 0 0 0 0 0 0 0 0 0
0 0 0 0 0 0 0 0 0 0 0 0 0 0 0 0 0 0 0 0 0 0 0 0 0 0 0 0 0 0 0 0 0 0 0 0 0 0 0 0 0 0 0 0 0 0 0 0 0
0 0 0 0 0 0 0 0 0 0 0 0 0 0 0 0 0 0 0 0 0 0 0 0 0 0 0 0 0 0 0 0 0 0 0 0 0 0 0 0 0 0 0 0 0 0 0 0 0
0 0 0 0 0 0 0 0 0 0 0 0 0 0 0 0 0 0 0 0 0 0 0 0 0 0 0 0 0 0 0 0 0 0 0 0 0 0 0 0 0 0 0 0 0 0 0 0 0
0 -0 -0 -0 0 0 0 0 0 0 0 0 0 0 0 0 0 0 0 0 0 0 0 0 0 0 0 0 0 0 0 0 0 0 0 0 0 0 0 0 0 0 0 0 0 0 0 0 0
0 0 0 0 0 0 0 0 0 0 0 0 0 0 0 0 0 0 0 0 0 0 0 0 0 0 0 0 0 0 0 0 0 0 0 0 0 0 0 0 0 0 0 0 0 0 0 0 0
0 0 0 0 0 0 0 0 0 0 0 0 0 0 0 0 0 0 0 0 0 0 0 0 0 0 0 0 0 0 0 0 0 0 0 0 0 0 0 0 0 0 0 0 0 0 0 0 0
0 0 0 0 0 0 0 0 0 0 0 0 0 0 0 0 0 0 0 0 0 0 0 0 0 0 0 0 0 0 0 0 0 0 0 0 0 0 0 0 0 0 0 0 0 0 0 0 0
0 0 0 0 0 0 0 0 0 0 0 0 0 0 0 0 0 0 0 0 0 0 0 0 0 0 0 0 0 0 0 0 0 0 0 0 0 0 0 0 0 0 0 0 0 0 0 0 0
0 0 0 0 0 0 0 0 0 0 0 0 0 0 0 0 0 0 0 0 0 0 0 0 0 0 0 0 0 0 0 0 0 0 0 0 0 0 0 0 0 0 0 0 0 0 0 0 0
0 0 0 0 0 0 0 0 0 0 0 0 0 0 0 0 0 0 0 0 0 0 0 0 0 0 0 0 0 0 0 0 0 0 0 0 0 0 0 0 0 0 0 0 0 0 0 0 0
0 0 0 0 0 0 0 0 0 0 0 0 0 0 0 0 0 0 0 0 0 0 0 0 0 0 0 0 0 0 0 0 0 0 0 0 0 0 0 0 0 0 0 0 0 0 0 0 0
0 0 0 0 0 0 0 0 0 0 0 0 0 0 0 0 0 0 0 0 0 0 0 0 0 0 0 0 0 0 0 0 0 0 0 0 0 0 0 0 0 0 0 0 0 0 0 0 0
0 0 0 0 0 0 0 0 0 0 0 0 0 0 0 0 0 0 0 0 0 0 0 0 0 0 0 0 0 0 0 0 0 0 0 0 0 0 0 0 0 0 0 0 0 0 0 0 0
0 0 0 0 0 0 0 0 0 0 0 0 0 0 0 0 0 0 0 0 0 0 0 0 0 1 0 0 0 0 0 0 0 0 0 0 0 0 0 0 0 0 0 0 0 0 0 0 0
0 0 0 0 0 0 0 0 0 0 0 0 0 0 0 0 0 0 0 0 0 0 0 0 1 1 0 0 0 0 0 0 0 0 0 0 0 0 0 0 0 0 0 0 0 0 0 0 0
0 0 0 0 0 0 0 0 0 0 0 0 0 0 0 0 0 0 0 0 0 0 1 1 1 1 0 0 0 0 0 0 0 0 0 0 0 0 0 0 0 0 0 0 0 0 0 0 0
0 0 0 0 0 0 0 0 0 0 0 0 0 0 0 0 0 0 0 0 0 0 1 1 1 1 1 0 0 0 0 0 0 0 0 0 0 0 0 0 0 0 0 0 0 0 0 0 0
Wind_Speed
5 4 2 1 4 5 2 3 1 2 2 2 3 5 5 3 2 2 1 6 8 8 6 7 9 9 9 9 9 9 9 9 8 9 9 9 9 8 8 9 9 9 9 9 9 9 9 9 10
4 3 1 3 5 3 3 3 1 1 2 3 4 4 4 3 2 5 4 6 9 8 5 6 9 9 9 9 9 8 8 8 8 8 8 8 8 8 8 8 9 9 8 8 8 8 9 9 9
3 2 3 4 3 2 3 2 1 1 3 2 3 4 3 3 4 5 4 9 8 7 5 6 10 9 9 8 8 8 8 8 8 8 8 8 8 7 7 8 8 8 7 7 8 8 8 8 8
2 2 4 5 1 3 4 3 2 3 2 3 3 4 2 2 5 5 9 11 9 6 5 6 10 10 9 8 8 7 7 7 7 7 7 7 7 6 6 6 7 7 7 7 7 7 7 7 7
3 4 5 3 3 4 3 2 2 3 2 2 3 4 2 3 6 10 11 10 9 6 4 5 9 9 8 8 8 7 7 6 6 7 7 7 6 6 5 5 6 6 6 6 6 6 6 6 6
4 5 4 1 4 4 3 1 2 2 2 3 4 4 1 2 7 9 9 8 7 7 5 4 8 9 8 7 7 7 6 6 5 5 5 6 6 5 5 4 5 5 5 5 5 5 5 5 5
4 4 2 2 3 4 2 1 3 3 3 3 5 5 1 2 5 8 8 7 6 5 4 3 4 5 7 7 6 6 6 5 5 4 4 5 5 5 5 4 5 5 5 4 4 5 5 5 5
4 5 1 1 2 4 2 1 1 3 2 4 4 6 5 6 7 8 7 6 5 4 4 3 2 2 2 3 5 5 5 5 4 4 4 4 4 4 4 4 4 4 4 4 4 4 4 4 4
4 5 1 3 3 3 1 1 1 1 4 3 2 4 6 13 12 9 7 4 4 4 3 3 3 2 2 2 3 3 4 4 3 2 2 2 1 1 1 2 2 3 3 3 3 3 3 3 3
4 3 6 5 4 3 2 1 2 2 1 1 3 4 11 14 13 11 9 9 7 7 5 4 3 3 2 2 2 1 1 1 1 1 1 1 1 1 1 0 1 1 2 2 2 2 2 2 2
4 5 4 4 4 2 1 1 2 5 3 6 7 10 13 13 11 11 10 9 9 7 6 5 4 3 3 1 2 1 1 1 1 1 1 1 1 1 1 1 1 0 1 1 1 2 2 2 1
2 4 4 4 2 1 2 2 2 4 7 5 9 15 14 13 12 12 11 9 7 6 6 5 4 4 3 2 2 1 1 1 1 1 1 1 1 1 1 1 1 1 1 1 1 1 2 1 1
3 4 3 4 3 2 2 2 2 4 3 6 10 13 14 13 11 9 8 7 7 7 7 6 5 5 4 3 2 2 1 1 1 1 1 2 1 1 1 0 1 1 1 1 1 1 1 2 2
3 3 4 4 3 1 3 1 1 4 4 8 11 11 12 13 11 8 7 7 8 8 7 5 6 5 4 4 3 2 2 1 1 1 1 2 2 2 1 1 1 1 1 1 1 1 1 1 1
1 3 5 3 1 0 3 3 2 2 6 8 8 8 9 9 9 10 10 9 8 7 6 6 6 5 5 4 4 2 2 2 1 1 1 2 2 2 2 1 1 1 1 2 2 2 2 1 1
2 3 3 5 2 1 4 4 5 3 7 6 6 7 7 7 8 8 8 7 7 6 6 6 7 6 5 4 3 2 2 2 1 1 1 1 2 2 2 2 1 1 1 1 1 1 2 1 1
4 1 2 5 3 2 3 4 4 2 6 6 6 6 7 5 5 5 6 6 7 7 6 6 6 6 6 5 3 3 2 2 1 1 1 1 2 3 2 2 1 2 2 1 1 1 1 1 1
2 1 2 3 3 3 1 4 4 1 5 5 5 5 6 7 7 5 5 6 6 6 6 6 5 5 5 4 3 2 2 1 1 1 1 1 1 2 2 2 1 2 2 1 1 2 1 1 1
3 2 4 6 3 1 2 3 4 1 2 3 3 4 5 6 4 3 4 5 5 5 5 6 6 5 5 3 3 2 2 1 1 1 1 1 1 2 2 2 1 2 2 2 2 2 2 1 1
3 2 4 5 1 2 1 2 3 1 2 3 4 5 5 3 2 4 4 5 6 6 6 5 5 5 5 4 3 2 2 2 1 1 1 1 1 1 2 2 2 2 2 2 2 2 2 1 1
4 5 5 4 3 2 1 4 3 2 1 1 0 2 3 5 5 5 6 6 6 6 6 6 6 5 4 4 3 3 3 2 1 1 0 0 1 1 1 2 2 2 2 2 2 2 2 1 1
5 6 6 3 0 2 1 1 5 3 3 2 2 2 3 4 5 5 6 6 7 7 6 5 5 4 4 4 4 5 3 2 2 1 1 0 1 1 2 2 2 2 2 2 2 2 2 2 1
6 2 3 2 3 1 2 2 6 2 2 4 4 4 4 4 5 6 7 7 6 5 5 4 4 4 4 4 5 5 3 2 1 2 1 1 1 1 1 2 2 2 2 2 2 2 2 2 2
3 5 5 5 5 1 2 3 5 3 4 4 4 4 3 3 4 4 4 4 4 4 4 4 4 4 4 5 4 5 5 4 3 2 2 1 0 0 0 1 1 2 2 2 2 2 2 2 2
4 6 4 4 4 4 2 2 6 4 3 4 4 4 2 2 3 4 4 5 5 5 5 5 5 4 4 5 5 4 5 5 5 4 3 2 1 0 1 1 1 1 2 2 2 2 2 2 2
2 7 7 4 4 4 2 3 5 2 2 2 1 1 0 1 2 3 4 5 5 6 6 6 6 5 4 5 5 4 4 3 3 3 3 3 2 2 1 1 1 1 2 2 2 2 2 1 2
4 2 5 7 2 0 3 3 5 2 3 3 2 1 1 1 1 2 3 4 4 5 5 6 6 4 4 4 4 4 4 3 3 3 2 2 2 2 2 1 1 1 1 1 2 1 1 1 1
4 6 5 5 4 2 3 3 4 3 3 2 1 1 1 0 1 1 2 3 3 4 4 4 5 5 4 4 4 3 3 3 3 3 3 2 2 2 2 2 1 1 0 1 1 1 1 2 1
3 4 5 4 4 5 3 6 4 4 4 3 2 2 2 2 2 2 2 2 2 3 4 4 4 4 3 4 3 3 3 2 3 3 3 3 2 2 3 2 2 1 1 1 1 2 2 2 1
3 4 5 4 2 3 4 6 3 2 2 2 2 2 1 1 1 1 2 3 3 4 4 4 4 4 3 3 3 3 3 3 3 2 2 2 2 2 2 2 2 1 1 1 1 1 2 2 2
Wind_Direction
140 126 122 91 54 46 351 296 287 357 14 44 85 97 107 108 153 173 131 137 134 139 150 155 153 148 141 132 127 122 117 118 119 122 125 127 128 130 136 137 136 133 131 127 123 120 116 117 119
134 141 93 60 73 45 306 286 323 288 140 122 84 82 83 79 84 116 135 145 137 140 144 155 155 149 143 138 134 130 126 124 126 129 132 134 133 134 138 139 136 133 133 130 125 123 120 120 120
162 172 87 70 83 167 261 272 218 75 126 101 77 66 90 130 138 150 157 142 132 137 142 163 157 152 148 143 138 136 132 131 132 135 138 139 138 139 139 140 137 135 135 132 126 123 122 121 122
130 58 54 64 13 234 232 250 172 133 98 67 100 84 69 99 151 151 140 141 137 141 149 169 159 156 153 147 141 137 134 132 132 134 136 136 138 137 137 138 137 136 134 130 127 125 124 121 122
67 73 55 28 299 272 246 230 172 139 138 103 110 105 60 31 108 128 139 145 145 148 154 169 161 159 156 151 146 141 138 134 133 134 134 136 139 144 146 146 138 136 132 131 131 127 124 121 123
56 63 71 321 292 291 274 208 143 136 129 123 118 116 77 100 124 137 140 140 143 149 154 163 167 163 160 155 150 145 141 139 135 136 135 139 141 145 152 154 149 145 142 141 137 132 129 125 125
100 91 137 245 291 301 269 148 139 139 141 162 138 119 114 148 145 136 131 128 133 144 150 161 165 165 164 160 155 149 147 144 141 140 136 140 146 149 155 161 157 153 150 147 145 139 138 134 128
122 101 85 280 273 279 277 41 131 133 157 134 129 145 181 179 139 122 114 116 129 147 161 165 160 153 152 161 165 157 154 153 151 148 145 140 147 149 156 159 153 153 152 149 143 134 138 135 133
91 79 218 234 224 265 288 18 14 90 123 134 149 171 168 140 133 124 118 122 148 173 182 173 169 163 151 160 173 157 159 159 153 145 146 131 103 103 141 152 147 151 153 146 142 132 127 127 121
95 144 227 225 218 236 272 222 160 98 108 113 67 83 125 138 145 151 158 167 178 187 191 185 181 172 161 177 141 113 133 120 113 84 85 83 88 92 104 80 174 165 155 148 134 118 105 93 76
154 200 238 255 240 224 231 198 141 140 216 212 177 152 147 152 158 167 174 177 183 183 185 187 187 176 169 164 139 118 99 96 100 98 97 92 84 67 61 46 359 5 89 69 58 79 66 72 82
195 245 240 267 274 201 193 171 158 188 227 199 161 151 154 162 173 179 180 182 177 173 186 184 180 174 176 162 150 142 135 139 146 125 114 108 97 79 75 75 57 60 61 67 57 74 78 69 79
219 266 263 258 274 231 158 188 196 246 243 128 134 147 162 171 179 183 182 179 175 181 187 186 177 177 176 165 168 158 171 183 179 140 141 140 139 145 121 90 84 83 86 97 95 85 76 62 58
239 260 291 295 277 227 151 237 158 254 140 131 145 163 174 179 179 174 177 182 188 189 189 183 182 182 172 171 170 166 176 170 146 152 168 157 158 162 151 137 106 89 94 102 108 100 84 69 62
292 321 334 338 335 294 101 346 258 218 132 140 159 171 178 184 180 186 187 188 189 188 182 181 184 178 175 175 175 165 165 153 159 174 174 166 165 164 155 141 126 104 99 98 91 81 76 75 57
22 27 336 312 347 359 119 256 280 133 141 159 172 175 182 194 195 196 188 184 180 177 178 183 183 171 170 168 160 150 146 146 151 142 147 165 160 153 144 143 144 127 110 106 104 92 87 77 59
25 23 289 311 345 48 107 250 288 167 155 171 182 180 180 190 205 204 190 179 174 174 171 175 174 169 167 160 151 143 134 132 127 109 132 166 156 150 144 153 154 134 124 124 137 99 114 112 86
237 255 290 289 315 39 13 271 296 193 166 183 188 187 183 195 206 191 180 173 165 162 163 166 168 163 150 139 128 117 106 116 113 112 148 172 160 149 142 148 148 140 134 134 128 116 99 105 107
186 214 267 266 263 65 278 287 293 256 157 187 192 194 202 214 201 163 154 153 147 150 156 158 154 151 144 140 146 146 154 154 139 166 172 169 163 151 141 145 141 144 149 154 144 129 109 81 72
193 236 265 286 281 166 241 301 297 200 185 192 196 204 207 197 164 163 152 155 158 161 164 158 158 155 158 160 154 145 132 142 147 136 125 158 170 167 153 153 155 152 138 124 131 133 125 93 83
212 204 223 241 330 28 99 338 329 324 7 59 187 212 208 192 185 178 169 171 162 167 174 173 165 160 152 133 114 94 72 63 82 93 111 194 164 149 145 161 158 151 151 164 169 155 148 143 91
243 224 203 212 126 296 98 276 295 308 333 318 272 226 224 210 185 176 174 177 180 183 173 167 160 159 151 147 147 138 145 184 188 164 154 75 117 146 158 158 162 158 155 165 184 163 152 143 155
217 207 158 167 156 40 12 143 283 324 295 276 264 249 235 219 192 184 185 186 180 172 166 163 152 158 158 157 161 152 156 165 138 117 117 85 53 86 137 146 152 167 170 174 177 163 158 162 168
159 69 59 52 75 54 260 164 267 254 240 263 272 270 245 218 198 186 178 160 153 152 152 153 159 168 168 161 163 163 161 159 146 142 146 143 77 32 51 130 154 172 174 182 190 188 181 186 181
89 89 36 4 17 250 276 171 245 256 259 248 257 276 262 197 179 168 160 161 161 161 166 165 169 179 180 168 171 175 176 172 173 169 173 170 177 221 246 152 185 191 190 187 178 176 198 197 193
152 136 153 191 216 267 327 221 250 269 295 287 244 246 113 150 171 177 177 177 177 171 170 170 178 187 183 180 182 181 180 178 183 178 174 183 197 214 208 171 195 205 193 186 178 179 199 185 198
127 138 155 132 145 231 281 288 301 345 5 17 24 50 91 144 169 190 186 181 177 174 179 176 171 179 185 184 178 178 182 183 186 178 166 175 195 196 168 167 170 218 206 192 172 175 191 162 184
113 136 96 114 144 231 280 263 257 278 290 321 329 314 317 58 158 185 182 189 181 168 165 156 160 173 179 175 175 179 183 189 186 166 165 176 189 176 158 155 166 189 169 159 156 151 155 142 164
71 77 94 109 147 157 221 263 237 224 225 232 243 232 227 218 216 206 191 179 144 134 144 156 164 164 172 178 174 161 167 172 166 168 174 176 182 174 168 168 174 190 181 142 152 167 160 151 152
125 138 137 145 207 168 175 258 289 240 228 226 261 284 283 245 237 207 170 136 129 140 149 158 162 168 175 171 158 159 159 152 152 169 176 166 168 174 178 171 176 203 199 176 164 181 176 174 163